This demonstration page uses our WeatherBlox Daily Observations layout. Learn more.

Left ArrowRight Arrow

36.17497, -115.13722

Hourly Observations for October 19, 2019

Temp ( °F °C ) Dew Point ( °F °C ) Humidity (%) Winds ( mph kmh ) Pressure ( in mb ) Visibility ( mi km ) Precip ( " mm )
12:53 am 00:53 Clear 57 13.9 15 -9.4 19 19 NW 3 6 29.93 1014 10 16 N/A
1:53 am 01:53 Clear 60 15.6 9 -12.8 13 13 W 9 15 29.93 1014 10 16 N/A
2:53 am 02:53 Clear 58 14.4 11 -11.7 15 15 NNW 9 15 29.93 1014 10 16 N/A
3:53 am 03:53 Clear 61 16.1 7 -13.9 11 11 NNW 13 20 29.92 1013 10 16 N/A
4:53 am 04:53 Clear 56 13.3 8 -13.3 14 14 N 5 7 29.93 1014 10 16 N/A
5:53 am 05:53 Clear 53 11.7 12 -11.1 19 19 WNW 7 11 29.95 1014 10 16 N/A
6:53 am 06:53 Sunny 55 12.8 7 -13.9 14 14 NNW 9 15 29.96 1014 10 16 N/A
7:53 am 07:53 Sunny 57 13.9 9 -12.8 15 15 N 7 11 29.98 1015 10 16 N/A
8:53 am 08:53 Sunny 62 16.7 9 -12.8 12 12 N N/A 29.99 1016 10 16 N/A
9:53 am 09:53 Sunny 64 17.8 11 -11.7 12 12 ESE 3 6 29.99 1016 10 16 N/A
10:53 am 10:53 Sunny 68 20 12 -11.1 11 11 S 5 7 29.98 1015 10 16 N/A
11:53 am 11:53 Sunny 71 21.7 12 -11.1 10 10 VRB 3 6 29.97 1015 10 16 N/A
12:53 pm 12:53 Sunny 73 22.8 12 -11.1 9 9 SE 7 11 29.92 1013 10 16 N/A
1:53 pm 13:53 Sunny 75 23.9 13 -10.6 9 9 VRB 3 6 29.88 1012 10 16 N/A
2:53 pm 14:53 Sunny 76 24.4 12 -11.1 9 9 N N/A 29.86 1011 10 16 N/A
3:53 pm 15:53 Sunny 77 25 12 -11.1 8 8 N N/A 29.83 1010 10 16 N/A
4:53 pm 16:53 Sunny 77 25 12 -11.1 8 8 N N/A 29.81 1010 10 16 N/A
5:53 pm 17:53 Sunny 76 24.4 12 -11.1 9 9 N N/A 29.80 1009 10 16 N/A
6:53 pm 18:53 Clear 73 22.8 17 -8.3 12 12 SSW 3 6 29.80 1009 10 16 N/A
7:53 pm 19:53 Clear 71 21.7 18 -7.8 13 13 WNW 5 7 29.81 1010 10 16 N/A
8:53 pm 20:53 Clear 68 20 20 -6.7 16 16 WSW 3 6 29.82 1010 10 16 N/A
9:53 pm 21:53 Clear 69 20.6 13 -10.6 11 11 W 9 15 29.82 1010 10 16 N/A
10:53 pm 22:53 Clear 70 21.1 8 -13.3 9 9 NNW 12 19 29.82 1010 10 16 N/A
11:53 pm 23:53 Clear 70 21.1 10 -12.2 10 10 NW 17 28 29.81 1010 10 16 N/A

Powered by AerisWeather